Location: Angwan Shehu
(11.2514°N, 7.4613°E)
Time: 06:06:36
(UTC+00:00)

SR - Pass Details

Date: 18 April 2021
Orbit: 573 x 882 km, 66.7° (Epoch: 12 May)

Event Time Altitude Azimuth Distance (km) Brightness Sun altitude
Rises 06:21:10 0° 207° (SSW) 3,081 ? 14.6°
Reaches altitude 10° 06:23:26 10° 210° (SSW) 2,210 ? 15.2°
Maximum altitude 06:28:27 63° 291° (WNW) 858 ? 16.4°
Drops below altitude 10° 06:33:57 10° 12° (NNE) 2,408 ? 17.7°
Sets 06:36:31 0° 16° (NNE) 3,380 ? 18.3°
